Torna al catalogo

TAURUS R/B

AttivoPO
NORAD 25490·ROCKET BODY·🇺🇸 United States

Lanciato Oct 3, 1998 da Vandenberg Space Force Base

Loading…

Prossimi Passaggi (prossime 24 ore)

TLE

AggiornatoSource: Space-Track

Epoca: Sep 14, 2026, 12:55 UTC

1 25490U 98055B   26257.53829148  .00000387  00000-0  57867-4 0  9994
2 25490  85.0723 190.1313 0012762 293.4151  66.5721 14.71784580498090

Traccia TAURUS R/B in tempo reale con AllMySat

Download on the App Store